RH
82 83 85 83 83 87 83 67 59 65 78 83 84 85 93 86 86 88 89 90 90 85 94 95 98 89 93 97 88 88 84 80 80 79 78 82 82 71 61 44 44 55 77
86 84 86 84 83 87 86 82 69 71 77 84 81 90 96 95 97 96 93 91 98 95 90 88 90 44 72 80 82 84 84 83 80 81 83 84 87 83 85 78 76 53 35
98 89 92 86 84 87 90 89 89 90 98 99 96 86 87 89 92 84 82 84 91 89 80 60 48 56 57 63 63 65 73 77 74 75 75 73 83 89 88 88 86 80 76
100 94 90 93 91 97 97 97 95 95 98 94 94 91 93 87 71 65 62 62 72 72 72 72 50 46 67 69 68 63 64 60 56 61 58 58 77 60 80 87 89 87 80
88 97 99 95 94 94 93 99 99 100 96 92 82 72 74 64 49 35 33 39 40 47 53 67 70 60 48 68 68 60 50 54 53 55 58 91 98 94 62 64 81 90 94
90 84 91 96 92 93 83 89 98 94 92 78 65 63 55 25 24 22 21 22 24 27 32 37 52 67 70 65 59 66 72 81 81 80 71 67 94 99 59 46 52 63 81
95 99 98 90 87 94 91 91 87 92 82 57 46 29 24 24 27 26 24 22 22 23 23 23 25 32 46 64 72 76 81 80 77 75 87 94 86 89 86 81 59 45 44
99 98 88 95 87 92 90 93 87 69 57 32 28 28 26 27 28 25 24 23 22 22 22 23 22 23 23 28 42 62 72 75 72 70 68 67 64 69 76 70 69 74 69
98 96 86 91 100 92 95 56 38 35 29 34 33 29 28 27 27 26 26 24 23 25 26 26 25 24 24 24 25 26 30 36 37 38 41 41 36 32 30 31 27 28 44
92 100 98 90 92 88 70 49 39 39 32 34 39 32 35 32 32 30 28 26 24 23 21 20 20 20 20 21 23 26 26 27 25 24 25 24 25 25 24 25 24 23 22
96 95 97 91 83 57 50 42 39 36 38 40 41 39 37 32 30 28 25 23 21 20 19 18 18 17 16 16 16 16 16 15 15 15 15 15 15 16 15 15 15 15 15
90 95 89 83 78 60 62 45 44 45 49 49 45 40 35 30 28 25 23 21 20 19 18 17 15 14 13 13 13 13 13 14 14 14 14 14 14 13 14 14 16 23 27
83 88 88 83 78 65 54 52 52 55 57 52 44 37 33 30 26 24 22 20 20 18 17 15 14 14 15 16 16 16 16 15 14 13 12 12 14 25 47 49 43 41 50
83 87 87 81 70 61 59 58 58 62 60 52 45 37 32 28 25 23 22 20 19 18 16 15 15 16 17 16 14 13 11 9 7 6 4 4 3 12 25 8 8 9 13
82 86 82 74 64 64 64 64 63 64 58 51 47 40 31 27 25 23 22 20 18 16 16 16 17 17 15 12 9 7 5 4 3 3 3 3 2 3 6 8 7 9 10
78 83 85 77 65 62 62 63 66 64 57 50 46 37 31 28 25 23 21 20 18 17 17 18 17 14 11 8 6 4 4 3 3 3 3 3 3 3 3 3 3 3 3
66 80 82 78 69 65 63 65 66 65 59 53 47 36 30 28 24 22 21 20 18 17 18 18 15 11 9 7 5 4 3 3 3 3 3 3 4 4 3 3 3 4 5
68 73 80 78 73 70 66 65 66 62 55 48 41 34 30 27 24 22 21 19 18 18 19 18 13 8 6 5 4 4 3 3 3 3 3 4 5 6 7 7 5 3 3
64 72 79 80 77 73 70 66 65 64 55 43 39 32 28 26 24 22 20 19 18 19 19 16 11 7 5 4 4 3 3 3 3 3 4 6 8 8 5 4 4 3 3
64 72 83 84 82 79 76 70 66 60 52 41 34 29 26 24 23 21 20 19 18 19 18 14 8 6 4 4 4 3 3 4 4 5 7 10 8 5 4 4 5 5 5
65 72 75 85 86 83 78 71 64 60 53 43 37 30 24 23 22 20 19 18 18 18 15 11 7 5 4 4 4 4 4 5 6 8 10 9 6 6 6 6 7 8 8
55 60 72 81 87 85 80 76 69 65 55 41 40 34 27 23 21 19 18 18 18 17 15 10 7 5 4 4 4 4 6 8 9 10 10 8 7 7 8 10 11 12 12
51 63 71 79 86 86 81 73 64 56 46 40 36 30 28 24 21 19 18 18 18 17 14 10 6 4 4 4 4 4 6 9 7 7 8 8 8 9 11 13 14 15 16
57 66 76 84 88 85 79 71 67 64 56 50 43 33 27 24 22 20 20 19 18 16 12 8 5 4 4 5 5 6 7 9 11 12 10 10 10 12 14 16 18 21 22
68 76 81 86 88 84 78 72 66 57 51 48 36 30 26 24 23 21 20 19 18 14 10 6 4 4 5 6 8 10 12 15 17 22 24 15 13 13 16 19 22 25 26
71 76 85 91 91 85 77 71 64 58 51 49 40 32 28 26 24 22 21 19 16 12 8 5 5 6 7 9 12 15 19 23 26 30 32 32 27 19 17 19 22 24 28
Wind_Speed
15 15 14 14 13 14 15 16 18 19 20 20 21 17 16 16 16 16 16 18 17 15 15 14 15 13 17 17 17 17 17 17 16 15 15 15 14 15 15 15 14 16 16
13 13 13 11 13 15 16 19 21 21 20 19 18 20 20 18 19 19 19 19 17 15 11 13 14 14 15 15 15 14 14 14 14 15 15 16 14 13 13 12 13 14 14
11 12 11 10 11 13 18 21 21 19 23 28 21 21 13 13 15 15 13 13 12 10 9 10 12 12 14 15 13 12 11 10 10 10 11 13 14 14 13 12 10 10 11
11 13 9 2 10 13 17 25 26 24 22 25 23 18 15 13 9 9 9 10 10 9 9 10 11 12 13 12 11 10 8 8 8 9 10 12 12 9 10 11 12 10 8
14 13 10 9 11 14 18 16 33 31 22 19 17 13 8 8 7 7 8 9 8 8 8 10 10 11 11 10 9 8 8 8 9 9 11 15 12 9 9 9 9 11 12
12 12 8 9 12 13 12 12 18 22 18 15 13 8 7 7 8 8 8 8 8 8 8 8 9 10 10 9 9 9 7 8 7 8 9 9 9 6 5 6 7 7 7
14 14 12 10 12 12 12 11 16 13 13 14 11 12 10 9 8 8 8 7 7 7 7 7 8 7 8 8 8 8 7 6 6 5 4 3 3 5 6 6 5 3 1
17 16 14 13 13 9 9 10 9 9 8 10 13 10 8 9 8 7 6 6 6 5 5 6 6 6 6 6 7 7 6 6 5 4 3 3 2 3 2 3 4 4 3
19 16 14 15 14 11 12 12 13 12 9 9 9 8 7 7 7 6 6 5 4 4 4 4 5 5 5 5 5 5 5 5 4 4 5 5 6 7 7 7 6 6 6
20 19 17 14 14 12 16 15 11 10 7 7 7 5 5 5 5 5 3 3 3 3 3 3 3 3 4 4 5 5 5 5 5 5 6 6 7 8 8 8 8 8 7
24 22 21 19 17 16 15 16 14 12 10 9 7 6 6 5 5 4 3 3 3 3 3 2 3 3 2 3 3 4 4 4 4 5 5 6 6 7 8 7 8 8 9
30 27 23 21 19 20 18 16 13 11 11 10 8 8 7 6 5 4 4 4 4 3 3 3 3 3 3 3 3 3 4 5 6 6 6 6 7 8 9 7 7 6 5
30 28 27 25 23 23 20 17 15 13 10 9 9 8 8 7 6 5 5 5 4 4 3 4 3 3 3 4 4 5 6 7 8 9 9 8 6 7 3 4 7 7 4
32 30 28 26 24 23 22 20 17 14 12 10 9 8 8 8 7 6 6 6 4 4 4 4 4 4 5 5 6 6 7 8 8 8 9 8 8 8 8 13 13 14 13
34 33 31 28 27 25 23 20 18 16 15 13 12 11 10 8 7 7 6 6 5 5 5 5 5 5 5 6 6 7 6 6 6 6 7 9 11 12 11 11 11 11 11
35 35 34 33 31 28 26 23 20 18 16 14 12 12 12 10 9 8 8 7 7 6 6 6 6 5 5 5 6 7 6 6 6 6 7 7 9 10 9 10 12 12 13
35 36 37 35 34 31 28 25 22 21 19 16 14 14 13 12 11 9 9 8 8 7 7 7 6 5 5 5 6 7 7 8 8 7 6 7 8 9 10 11 11 12 13
35 37 37 37 36 34 31 28 25 22 19 18 16 15 14 13 12 11 10 10 9 8 8 7 6 5 5 6 7 8 8 9 9 8 9 8 8 8 9 11 13 16 17
36 37 40 40 37 34 31 29 27 25 23 21 18 17 16 15 14 12 11 10 9 8 8 8 7 5 5 5 6 8 9 9 11 10 9 8 7 7 9 12 14 15 17
36 37 40 41 40 38 36 32 29 27 25 22 20 19 18 17 16 15 14 12 11 10 9 8 7 5 5 5 6 7 8 8 10 9 9 8 7 9 14 14 16 18 19
37 38 42 45 45 43 41 37 35 33 29 25 23 21 19 18 16 15 14 13 11 9 8 8 7 6 5 5 5 6 8 9 9 9 9 9 10 12 12 16 19 20 19
40 41 42 46 47 46 44 41 39 35 32 28 26 24 22 20 17 16 14 12 10 9 9 9 8 7 6 4 3 4 3 6 10 12 11 13 13 13 16 19 19 19 20
36 42 44 46 48 47 45 42 40 35 32 32 30 26 23 21 18 15 14 12 11 11 10 9 8 7 6 5 5 2 2 2 6 11 8 10 11 15 18 18 17 18 17
27 36 42 45 47 48 46 44 41 39 38 35 31 28 25 23 20 18 16 15 13 12 10 9 7 6 6 5 5 4 4 6 3 6 7 11 17 20 17 15 17 16 16
20 28 36 43 47 49 47 44 41 39 37 34 31 28 25 23 21 19 17 15 13 11 9 8 7 6 6 6 6 6 6 7 7 8 14 16 23 20 17 20 16 16 16
12 18 26 36 43 47 47 45 43 42 39 34 31 28 26 24 22 19 17 14 11 10 9 8 7 6 6 6 6 7 8 7 10 10 16 22 25 25 24 17 12 18 15
Wind_Direction
195 200 202 197 196 195 191 187 173 166 155 147 142 138 135 125 125 123 116 108 105 108 112 104 104 107 101 107 105 103 104 101 99 99 98 94 89 89 86 84 85 83 83
187 193 198 209 212 203 202 199 195 180 174 171 177 148 138 132 128 121 121 116 110 111 109 113 106 106 113 115 115 109 106 103 100 97 94 92 89 90 90 88 82 80 81
176 184 191 222 226 217 212 201 195 184 172 144 136 138 146 143 143 139 142 141 136 130 115 103 118 123 123 122 124 120 113 107 102 103 100 93 89 89 90 86 86 87 79
134 169 174 152 205 215 212 205 188 173 138 141 140 149 152 161 167 165 166 155 151 143 128 124 117 126 131 133 135 134 123 117 114 113 115 100 89 103 105 99 91 87 88
149 145 138 152 108 106 130 99 158 160 148 136 134 143 161 169 181 176 166 162 162 155 146 134 128 131 135 141 140 133 125 110 104 110 116 109 106 93 122 125 115 100 90
172 167 175 191 116 99 92 93 95 129 142 134 141 150 192 177 158 157 153 151 145 145 151 151 149 145 143 143 140 139 133 123 112 110 123 130 125 107 100 142 146 141 137
170 167 169 163 153 131 137 133 113 142 149 152 157 164 168 164 158 150 147 142 138 135 138 141 147 153 156 157 155 155 156 151 142 138 138 129 85 65 54 49 36 29 35
168 163 178 169 171 184 176 175 160 175 168 158 162 165 160 155 163 162 153 157 151 152 163 158 155 155 157 163 171 176 186 195 194 194 210 232 271 275 291 315 324 333 355
183 183 176 192 208 218 201 171 164 164 171 165 164 162 164 171 174 181 169 174 171 176 181 178 172 170 174 185 192 199 210 219 232 248 255 268 283 292 300 308 315 308 303
189 186 190 186 195 191 182 182 180 163 183 183 180 174 172 185 183 180 188 184 178 188 187 181 172 176 178 183 199 207 220 239 247 253 262 273 279 285 295 301 305 301 295
195 196 197 190 189 190 192 186 187 190 196 196 193 198 192 196 194 192 186 204 201 199 208 208 194 202 195 197 213 228 238 240 249 260 267 269 274 285 289 293 296 294 294
203 202 201 201 197 196 202 203 197 196 194 197 201 197 203 213 205 200 215 219 220 214 211 222 219 213 207 210 215 241 265 277 277 275 275 284 289 291 290 295 288 287 290
209 209 210 205 202 203 204 206 202 205 205 205 202 206 206 206 208 218 229 235 228 229 222 215 220 229 232 244 255 263 273 279 280 282 281 280 273 269 281 284 288 283 276
215 214 214 216 212 205 205 207 208 212 211 213 218 215 214 215 215 222 227 235 232 235 234 230 230 238 255 266 274 277 276 276 276 273 275 270 263 247 242 253 262 270 275
218 216 216 218 215 212 211 211 212 211 212 210 214 221 221 224 228 229 230 232 234 234 234 238 246 257 270 282 287 286 281 273 263 258 257 258 255 257 264 273 282 284 284
221 218 217 217 218 216 218 216 214 217 216 216 218 219 222 225 230 230 230 228 230 233 237 242 250 260 266 276 285 284 282 275 263 256 252 254 259 264 271 279 283 287 290
225 220 219 219 217 217 216 217 215 216 218 221 221 220 223 225 229 231 231 233 235 236 239 244 251 259 269 272 276 274 275 272 269 263 257 259 266 276 282 288 292 294 296
230 223 220 219 218 215 215 217 219 219 217 218 219 223 227 228 228 229 231 231 230 234 243 252 258 265 271 279 279 274 273 267 263 260 264 265 267 279 295 302 303 301 298
236 227 221 221 220 218 218 218 218 219 217 216 219 222 225 227 229 230 232 232 235 236 243 250 253 255 268 270 274 274 269 261 255 252 251 253 259 278 295 298 298 299 298
236 231 225 223 220 219 220 219 218 218 218 216 217 220 221 223 224 226 228 230 233 233 241 249 256 265 274 286 290 280 274 259 251 252 250 250 262 295 304 306 307 304 302
240 232 226 222 221 220 218 214 214 215 214 216 219 221 221 222 225 226 229 228 231 237 249 260 270 280 292 305 289 284 273 253 244 241 247 256 270 297 303 313 315 313 310
238 234 228 224 221 219 218 218 217 214 212 216 217 219 222 223 224 225 227 231 234 239 249 263 276 287 292 305 305 294 246 256 251 248 252 274 278 300 315 318 316 315 314
239 234 230 225 221 221 219 216 213 211 210 209 210 214 219 222 223 225 230 235 239 244 249 258 270 281 297 309 322 331 303 262 290 272 269 267 285 303 316 317 316 317 315
250 239 232 227 222 220 219 218 219 217 213 216 217 212 214 217 219 224 230 235 239 243 250 261 274 286 299 312 315 311 283 283 296 293 284 286 294 309 316 323 324 325 325
269 251 237 230 224 221 221 221 219 218 219 220 210 210 210 213 216 221 227 232 238 246 256 265 273 283 296 303 309 312 308 306 297 296 302 304 307 315 329 334 335 335 332
290 262 245 236 227 223 221 221 219 219 219 215 210 211 211 213 216 219 225 230 237 246 256 266 273 279 288 296 305 312 315 314 306 310 309 316 318 320 327 333 335 334 332